星链-34183 (STARLINK-34183)

导读

STARLINK-34183是美国太空探索技术公司星链互联网星座的一员,于2025年6月3日发射升空,星链项目旨在构建覆盖全球的低轨卫星互联网星座,该卫星入轨后将为全球范围用户提供高速宽带互联网服务,补充完善星链系统通信覆盖能力,提升星座整体服务容量,助力实现全球无死角网络接入。

基本信息
目录编号:
64254
目录名称:
STARLINK-34183
国际标识:
2025-119X
轨道中心:
EARTH
卫星名称:
星链-34183
卫星全名:
星链-34183 (STARLINK-34183)
卫星状态:
在轨 (已飞行376 天)
发射日期:
2025-06-03 UTC
国别 :
美国 (US)
星等 :
--
轨道信息
数据来源 国际轨道数据
星历时间: 2026-06-13T22:23:33+0800
11小时前
查看轨道信息
半长轴: 6861.165km
偏心率: 0.0002052
轨道倾角: 43.011°
近地点辐角 262.676°
升交点赤经 125.734°
平近点角 97.386°
近地点: 481.62km
远地点: 484.436km
周期: 94.266分钟
每日圈数: 15.275873
详细信息
固有亮度:
5
最大亮度:
2.5
卫星平台:
Starlink V1.0
覆盖范围:
全球
运营商:
太空探索技术公司
运营商所在国:
美国
制造商(研发单位):
太空探索技术公司
制造商所在国:
美国
使用方式:
暂无
卫星简介
Starlink 计划是 SpaceX 推出的全球卫星互联网项目,通过发射低轨道卫星,为全球尤其是偏远地区提供高速、低延迟的互联网服务。自 2019 年起,Starlink 已部署数千颗卫星,旨在缩小全球数字鸿沟,推动互联网普及。该项目还为军事、航空等行业提供通信支持,带来广泛经济效益。
2D轨道图
3D轨道图
轨道高度分析图
轨道倾角分析图
轨道综合分析图
查看轨道综合分析图